TimeMDT,TemperatureF,Dew PointF,Humidity,Sea Level PressureIn,VisibilityMPH,Wind Direction,Wind SpeedMPH,Gust SpeedMPH,PrecipitationIn,Events,Conditions,WindDirDegrees,DateUTC
12:53 AM,43.0,39.0,86,29.94,10.0,West,6.9,-,N/A,,Overcast,260,2012-03-23 06:53:00
1:53 AM,42.1,37.9,85,29.95,10.0,West,9.2,-,N/A,,Overcast,260,2012-03-23 07:53:00
2:20 AM,41.0,37.4,87,29.94,10.0,West,11.5,-,N/A,,Partly Cloudy,260,2012-03-23 08:20:00
2:53 AM,41.0,37.9,89,29.93,10.0,WSW,10.4,-,N/A,,Clear,250,2012-03-23 08:53:00
3:53 AM,37.9,36.0,93,29.94,10.0,West,11.5,-,N/A,,Clear,280,2012-03-23 09:53:00
4:53 AM,37.0,34.0,89,29.95,10.0,West,10.4,-,N/A,,Clear,270,2012-03-23 10:53:00
5:53 AM,37.0,35.1,93,29.96,10.0,West,10.4,-,N/A,,Clear,280,2012-03-23 11:53:00
6:53 AM,36.0,34.0,93,29.99,10.0,West,4.6,-,N/A,,Clear,260,2012-03-23 12:53:00
8:53 AM,44.1,37.9,79,29.99,10.0,West,13.8,-,N/A,,Clear,270,2012-03-23 14:53:00
9:53 AM,48.9,39.0,69,29.99,10.0,West,4.6,-,N/A,,Clear,260,2012-03-23 15:53:00
10:53 AM,55.9,37.9,51,29.96,10.0,West,10.4,-,N/A,,Clear,280,2012-03-23 16:53:00
11:53 AM,62.1,34.0,35,29.93,10.0,West,8.1,-,N/A,,Clear,280,2012-03-23 17:53:00
12:53 PM,64.9,28.9,26,29.90,10.0,West,5.8,-,N/A,,Clear,280,2012-03-23 18:53:00
1:53 PM,68.0,23.0,18,29.87,10.0,Variable,3.5,-,N/A,,Clear,0,2012-03-23 19:53:00
2:53 PM,70.0,23.0,17,29.86,10.0,SE,4.6,-,N/A,,Clear,140,2012-03-23 20:53:00
3:53 PM,71.1,24.1,17,29.86,10.0,SE,5.8,-,N/A,,Clear,140,2012-03-23 21:53:00
4:53 PM,70.0,25.0,18,29.86,10.0,ESE,3.5,-,N/A,,Clear,110,2012-03-23 22:53:00
5:53 PM,69.1,28.0,22,29.86,10.0,ESE,8.1,-,N/A,,Clear,110,2012-03-23 23:53:00
6:53 PM,62.1,36.0,38,29.89,10.0,ESE,9.2,-,N/A,,Clear,120,2012-03-24 00:53:00
7:53 PM,54.0,37.9,55,29.92,10.0,SE,9.2,-,N/A,,Clear,130,2012-03-24 01:53:00
8:53 PM,53.1,39.0,59,29.92,10.0,SE,10.4,-,N/A,,Clear,130,2012-03-24 02:53:00
9:53 PM,52.0,39.0,61,29.93,10.0,South,9.2,-,N/A,,Clear,170,2012-03-24 03:53:00
10:53 PM,51.1,39.9,66,29.92,10.0,South,10.4,-,N/A,,Clear,180,2012-03-24 04:53:00
11:53 PM,51.1,36.0,56,29.89,10.0,SSW,12.7,-,N/A,,Clear,210,2012-03-24 05:53:00